Location: Ottawa
(45.4170°N, 75.7000°W)
Time: 06:29:32
(UTC-05:00)

ISS - Pass Details

Date: 17 February 2026
Orbit: 416 x 427 km, 51.6° (Epoch: 5 March)

Event Time Altitude Azimuth Distance (km) Brightness Sun altitude
Exits shadow 05:51:21 23° 270° (W) 925 -2.7 -12.9°
Maximum altitude 05:53:08 51° 338° (NNW) 531 -3.5 -12.6°
Drops below altitude 10° 05:56:25 10° 56° (NE) 1,495 -0.2 -12.0°
Sets 05:58:33 0° 61° (ENE) 2,359 1.1 -11.6°
